Toledo, OH

10:24 AM EDT on June 24, 2017 (GMT -0400)
Toledo Express

Weather History for KTOL - June, 2013

Change the Weather History Date:

Thursday, June 20, 2013

  Actual Average Record
Temperature  
Mean Temperature 67 °F 71 °F  
Max Temperature 83 °F 82 °F 98 °F (1953)
Min Temperature 50 °F 60 °F 39 °F (1970)
Degree Days  
Heating Degree Days 0 1  
Month to date heating degree days 31 33  
Since 1 June heating degree days 31 33  
Since 1 July heating degree days 6165 6143  
Cooling Degree Days 2 7  
Month to date cooling degree days 63 94  
Year to date cooling degree days 157 147  
Since 1 June cooling degree days 63 94  
Growing Degree Days 16 (Base 50)    
Moisture  
Dew Point 50 °F    
Average Humidity 58    
Maximum Humidity 89    
Minimum Humidity 26    
Precipitation  
Precipitation 0.00 in 0.12 in 2.02 in (1987)
Month to date precipitation 4.37 2.46  
Year to date precipitation 18.87 15.83  
Snow  
Snow 0.00 in 0.00 in - ()
Month to date snowfall 0.0 0.0  
Since 1 June snowfall 0.0 0.0  
Since 1 July snowfall 22.4 37.6  
Snow Depth 0.00 in    
Sea Level Pressure  
Sea Level Pressure 30.18 in    
Wind  
Wind Speed 3 mph (South)    
Max Wind Speed 10 mph    
Max Gust Speed 15 mph    
Visibility 10 miles    
Events      
T = Trace of Precipitation, MM = Missing Value Source: NWS Daily Summary

Daily Weather History Graph

Daily Weather History Graph

Search for Another Location

Airport or City:

Trip Planner

Search our weather history database for the weather conditions in past years. The results will help you decide how hot, cold, wet, or windy it might be!

Date:

Astronomy

Jun. 20, 2013 Rise Set
Actual Time 6:01 AM EDT 9:12 PM EDT
Civil Twilight 5:26 AM EDT 9:46 PM EDT
Nautical Twilight 4:43 AM EDT 10:30 PM EDT
Astronomical Twilight 3:50 AM EDT 11:23 PM EDT
Moon 6:12 PM EDT (6/20) 3:28 AM EDT (6/20)
Length of Visible Light 16h 20m
Length of Day
15h 11m
Waxing Gibbous, 89% of the Moon is Illuminated
Jun 20
Waxing Gibbous
Jun 23
Full
Jun 30
Last Quarter
Jul 8
New
Jul 15
First Quarter

Hourly Weather History & Observations

Time (EDT) Temp. Dew Point Humidity Pressure Visibility Wind Dir Wind Speed Gust Speed Precip Events Conditions
12:52 AM 57.0 °F 48.0 °F 72% 30.16 in 10.0 mi ESE 4.6 mph - N/A   Clear
1:52 AM 57.0 °F 48.0 °F 72% 30.16 in 10.0 mi Calm Calm - N/A   Clear
2:52 AM 55.0 °F 48.0 °F 77% 30.16 in 10.0 mi Calm Calm - N/A   Clear
3:52 AM 52.0 °F 48.0 °F 86% 30.17 in 10.0 mi Calm Calm - N/A   Clear
4:52 AM 51.1 °F 48.0 °F 89% 30.17 in 10.0 mi Calm Calm - N/A   Clear
5:52 AM 51.1 °F 48.0 °F 89% 30.18 in 10.0 mi Calm Calm - N/A   Clear
6:52 AM 51.1 °F 48.9 °F 92% 30.20 in 10.0 mi Calm Calm - N/A   Clear
7:52 AM 59.0 °F 51.1 °F 75% 30.20 in 10.0 mi Calm Calm - N/A   Clear
8:52 AM 64.0 °F 52.0 °F 65% 30.21 in 10.0 mi South 3.5 mph - N/A   Clear
9:52 AM 69.1 °F 53.1 °F 57% 30.22 in 10.0 mi SSW 3.5 mph - N/A   Clear
10:52 AM 73.0 °F 51.1 °F 46% 30.21 in 10.0 mi SSE 4.6 mph - N/A   Clear
11:52 AM 77.0 °F 50.0 °F 39% 30.20 in 10.0 mi Variable 4.6 mph - N/A   Clear
12:52 PM 78.1 °F 48.0 °F 35% 30.20 in 10.0 mi Variable 6.9 mph - N/A   Clear
1:52 PM 80.1 °F 48.9 °F 34% 30.19 in 10.0 mi West 8.1 mph - N/A   Clear
2:52 PM 80.1 °F 45.0 °F 29% 30.19 in 10.0 mi WSW 4.6 mph - N/A   Clear
3:52 PM 81.0 °F 46.9 °F 30% 30.19 in 10.0 mi Calm Calm - N/A   Partly Cloudy
4:52 PM 82.0 °F 45.0 °F 27% 30.18 in 10.0 mi WSW 6.9 mph - N/A   Clear
5:52 PM 82.0 °F 44.1 °F 26% 30.16 in 10.0 mi Calm Calm - N/A   Clear
6:52 PM 80.1 °F 46.0 °F 30% 30.15 in 10.0 mi South 3.5 mph - N/A   Clear
7:52 PM 79.0 °F 53.1 °F 40% 30.15 in 10.0 mi Calm Calm - N/A   Clear
8:52 PM 73.9 °F 54.0 °F 50% 30.16 in 10.0 mi East 6.9 mph - N/A   Clear
9:52 PM 70.0 °F 54.0 °F 57% 30.16 in 10.0 mi East 4.6 mph - N/A   Clear
10:52 PM 66.9 °F 55.0 °F 66% 30.18 in 10.0 mi East 3.5 mph - N/A   Partly Cloudy
11:52 PM 64.9 °F 54.0 °F 68% 30.19 in 10.0 mi Calm Calm - N/A   Scattered Clouds